Location: Bothell
(47.7630°N, 122.2040°W)
Time: 21:01:44
(UTC-07:00)

Amateur Radio Satellites - All Passes

Search period start: 17 October 2017 20:31
Search period end: 18 October 2017 20:31
Location: Bothell, 47.7630°N, 122.2040°W

Satellite Date Start Highest point End Downlink Frequencies (MHz)
Time Altitude Azimuth
ZACube-1 17 Oct 20:39:39 20:44:14 78° 258° (WSW) 20:48:52 437.345
BEESAT 2 17 Oct 20:40:55 20:43:03 14° 27° (NNE) 20:45:11 435.950
FO-29 17 Oct 20:47:13 20:52:17 22° 90° (E) 20:57:40 435.910
EO-88 17 Oct 20:48:21 20:48:36 10° 59° (ENE) 20:48:50 145.990 - 145.960
Max Valier Satellite 17 Oct 20:49:16 20:51:20 14° 62° (ENE) 20:53:24 145.860
DELFI C3 17 Oct 20:50:54 20:53:51 21° 65° (ENE) 20:56:48 145.870
UWE-3 17 Oct 20:55:52 21:00:02 32° 265° (W) 21:04:15 435.000/436.395/437.385
O/OREOS (USA 219) 17 Oct 20:59:11 21:02:30 20° 101° (ESE) 21:05:51 437.305
STARS 17 Oct 21:01:20 21:02:02 10° 306° (NW) 21:02:45 437.465
BEESAT 3 17 Oct 21:04:11 21:07:54 36° 43° (NE) 21:11:33 437.485
HO-68 17 Oct 21:05:44 21:10:45 20° 272° (W) 21:15:49 435.675
Oscar 11 17 Oct 21:22:25 21:26:35 45° 262° (W) 21:30:45 .
STRAND 1 17 Oct 21:22:52 21:27:55 54° 290° (WNW) 21:32:56 437.568
UNISAT 6 17 Oct 21:39:32 21:40:42 11° 85° (E) 21:41:53 437.425
TIGRISAT 17 Oct 21:54:02 21:56:34 14° 88° (E) 21:59:02 435.000
AO-73 17 Oct 21:57:43 22:00:40 17° 271° (W) 22:03:39 145.935
YUBILEINY 17 Oct 21:57:54 22:06:36 68° 267° (W) 22:15:18 435.215
AO-85 17 Oct 21:58:33 22:02:37 35° 43° (NE) 22:06:59 145.980
BEESAT 2 17 Oct 22:17:37 22:21:38 57° 48° (NE) 22:25:36 435.950
EO-88 17 Oct 22:18:00 22:21:39 81° 257° (WSW) 22:25:20 145.990 - 145.960
Max Valier Satellite 17 Oct 22:21:04 22:24:45 54° 260° (W) 22:28:26 145.860
DELFI C3 17 Oct 22:24:43 22:28:22 38° 263° (W) 22:32:03 145.870
FO-29 17 Oct 22:31:14 22:37:53 83° 287° (WNW) 22:45:18 435.910
O/OREOS (USA 219) 17 Oct 22:37:05 22:41:32 52° 300° (WNW) 22:46:03 437.305
BEESAT 3 17 Oct 22:41:54 22:45:22 29° 243° (WSW) 22:48:46 437.485
ESTCUBE 1 17 Oct 22:57:07 23:01:08 33° 66° (ENE) 23:05:08 437.505/2401.250
UNISAT 6 17 Oct 23:13:26 23:18:09 87° 104° (ESE) 23:22:43 437.425
LO-87 17 Oct 23:16:56 23:20:30 67° 74° (ENE) 23:24:07 145.935 - 145.965
TIGRISAT 17 Oct 23:29:07 23:33:47 73° 287° (WNW) 23:38:20 435.000
PRISM 17 Oct 23:36:07 23:40:14 67° 103° (ESE) 23:44:20 437.425
AO-85 17 Oct 23:38:51 23:43:06 40° 240° (WSW) 23:47:37 145.980
RS-15 17 Oct 23:46:28 23:53:59 19° 95° (E) 00:01:29 29.354- 29.394
BEESAT 2 17 Oct 23:56:13 23:58:58 18° 247° (WSW) 00:01:42 435.950
YUBILEINY 17 Oct 23:57:14 00:01:39 15° 289° (WNW) 00:06:04 435.215
SPROUT 18 Oct 00:12:17 00:16:24 47° 71° (ENE) 00:20:32 437.525
DX 1 18 Oct 00:17:17 00:19:11 13° 57° (ENE) 00:21:04 434.975-435.025
FO-29 18 Oct 00:17:41 00:22:12 20° 304° (NW) 00:27:01 435.910
O/OREOS (USA 219) 18 Oct 00:21:21 00:22:05 10° 322° (NW) 00:22:49 437.305
AIST 2D 18 Oct 00:28:56 00:32:25 75° 102° (ESE) 00:35:52 435.315
ESTCUBE 1 18 Oct 00:33:58 00:37:55 30° 265° (W) 00:41:53 437.505/2401.250
VELOX 1 18 Oct 00:35:16 00:39:34 59° 72° (ENE) 00:43:55 145.980
50 SAT 18 Oct 00:41:42 00:43:55 17° 65° (ENE) 00:46:10 437.505
EO-79 18 Oct 00:45:21 00:49:23 39° 98° (E) 00:53:22 145.935-145.965
UKube-1 18 Oct 00:46:27 00:49:02 16° 59° (ENE) 00:51:38 .
POLYITAN 1 18 Oct 00:49:13 00:53:19 43° 98° (E) 00:57:22 437.675
UNISAT 6 18 Oct 00:51:46 00:54:09 14° 303° (WNW) 00:56:30 437.425
TIGRISAT 18 Oct 01:08:16 01:09:36 11° 305° (NW) 01:10:55 435.000
QB50P2 18 Oct 01:09:10 01:13:29 77° 104° (ESE) 01:17:44 145.880/145.840
PRISM 18 Oct 01:12:44 01:15:00 15° 300° (WNW) 01:17:16 437.425
NANOSAT C BR1 18 Oct 01:15:21 01:19:38 73° 103° (ESE) 01:23:51 145.865
Oscar 19 18 Oct 01:22:07 01:24:23 13° 87° (E) 01:26:37 437.125/150
DUCHIFAT 1 18 Oct 01:27:42 01:31:59 85° 105° (ESE) 01:36:13 145.980
Gurwin Techsat 1B 18 Oct 01:31:57 01:33:34 11° 85° (E) 01:35:11 435.225
BUGSAT 1 18 Oct 01:46:37 01:50:35 37° 97° (E) 01:54:30 437.445
SPROUT 18 Oct 01:49:29 01:52:32 19° 268° (W) 01:55:38 437.525
DX 1 18 Oct 01:50:22 01:54:42 87° 252° (WSW) 01:59:04 434.975-435.025
RS-15 18 Oct 01:51:57 02:04:05 69° 119° (ESE) 02:16:11 29.354- 29.394
50 SAT 18 Oct 02:13:05 02:16:02 31° 262° (W) 02:19:02 437.505
VELOX 1 18 Oct 02:13:41 02:16:24 16° 270° (W) 02:19:09 145.980
MOZHAYETS 4 18 Oct 02:19:46 02:23:16 22° 62° (ENE) 02:26:45
UKube-1 18 Oct 02:20:17 02:24:34 66° 259° (WSW) 02:28:52 .
EO-79 18 Oct 02:21:31 02:24:56 24° 296° (WNW) 02:28:20 145.935-145.965
ITUPSAT 1 18 Oct 02:22:57 02:26:40 23° 61° (ENE) 02:30:23 437.325
POLYITAN 1 18 Oct 02:25:32 02:28:51 22° 297° (WNW) 02:32:08 437.675
BEESAT 18 Oct 02:39:43 02:43:55 31° 65° (ENE) 02:48:08 436.000
QB50P2 18 Oct 02:46:31 02:48:41 14° 301° (WNW) 02:50:51 145.880/145.840
NANOSAT C BR1 18 Oct 02:52:28 02:54:47 14° 301° (WNW) 02:57:05 145.865
Oscar 19 18 Oct 02:59:16 03:04:27 89° 107° (ESE) 03:09:34 437.125/150
M-CUBED/EXP-1 PRIME 18 Oct 03:01:02 03:04:29 68° 108° (ESE) 03:08:09 437.505
DUCHIFAT 1 18 Oct 03:05:13 03:07:00 12° 302° (WNW) 03:08:47 145.980
Gurwin Techsat 1B 18 Oct 03:09:03 03:14:25 77° 104° (ESE) 03:19:44 435.225
BUGSAT 1 18 Oct 03:22:18 03:25:45 24° 296° (WNW) 03:29:11 437.445
ITAMSAT 1 18 Oct 03:28:06 03:30:16 12° 87° (E) 03:32:27 435.822/435.867
MOZHAYETS 4 18 Oct 03:55:33 04:00:04 52° 260° (W) 04:04:37
ITUPSAT 1 18 Oct 03:59:27 04:04:09 53° 259° (W) 04:08:54 437.325
CUBESAT XI-V 18 Oct 03:59:43 04:04:06 44° 69° (ENE) 04:08:29 437.345
RS-15 18 Oct 04:05:20 04:17:19 52° 326° (NW) 04:29:10 29.354- 29.394
KKS-1 18 Oct 04:06:39 04:09:44 19° 61° (ENE) 04:12:50 437.445
AO-7 18 Oct 04:06:58 04:14:41 40° 98° (E) 04:22:20 .
BEESAT 18 Oct 04:17:13 04:21:37 36° 263° (W) 04:26:03 436.000
M-CUBED/EXP-1 PRIME 18 Oct 04:37:15 04:38:32 12° 304° (NW) 04:39:51 437.505
Oscar 19 18 Oct 04:40:03 04:43:04 16° 304° (NW) 04:46:04 437.125/150
STARS 18 Oct 04:46:48 04:49:58 20° 61° (ENE) 04:53:10 437.465
Gurwin Techsat 1B 18 Oct 04:50:07 04:53:46 19° 303° (WNW) 04:57:24 435.225
NO-84 18 Oct 04:54:44 04:58:54 49° 139° (SE) 05:02:56 435.350 FM
ITAMSAT 1 18 Oct 05:05:15 05:10:32 84° 105° (ESE) 05:15:46 435.822/435.867
DOVE 4 18 Oct 05:17:39 05:21:13 20° 91° (E) 05:24:52 437.250
O/OREOS (USA 219) 18 Oct 05:26:32 05:28:39 13° 41° (NE) 05:30:46 437.305
CUBESAT XI-V 18 Oct 05:37:57 05:41:39 23° 267° (W) 05:45:22 437.345
KKS-1 18 Oct 05:41:32 05:45:53 57° 259° (W) 05:50:18 437.445
AO-7 18 Oct 05:59:41 06:07:43 56° 298° (WNW) 06:15:44 .
STARS 18 Oct 06:21:41 06:25:57 52° 260° (W) 06:30:17 437.465
RS-15 18 Oct 06:22:22 06:33:19 35° 358° (N) 06:43:57 29.354- 29.394
NO-84 18 Oct 06:32:17 06:36:24 46° 338° (NNW) 06:40:20 435.350 FM
HO-68 18 Oct 06:41:15 06:44:37 14° 84° (E) 06:47:57 435.675
LilacSat-2 18 Oct 06:43:31 06:46:51 29° 96° (E) 06:50:10 437.200
XW-2F 18 Oct 06:43:54 06:47:04 26° 95° (E) 06:50:13 145.980 - 146.000
ITAMSAT 1 18 Oct 06:46:00 06:49:20 17° 304° (NW) 06:52:39 435.822/435.867
KAITUO 1B 18 Oct 06:46:42 06:49:39 22° 94° (E) 06:52:33 145.475/437.950
XW-2D 18 Oct 06:54:00 06:57:30 37° 97° (E) 07:00:59 145.860 - 145.880
DOVE 4 18 Oct 06:54:25 06:59:12 61° 288° (WNW) 07:04:14 437.250
CUTE-I 18 Oct 06:56:06 07:01:00 34° 96° (E) 07:05:52 437.470
SO-50 18 Oct 06:56:23 06:58:21 13° 109° (ESE) 07:00:19 436.795
STRAND 1 18 Oct 07:03:12 07:08:03 45° 68° (ENE) 07:12:58 437.568
O/OREOS (USA 219) 18 Oct 07:04:21 07:08:58 70° 62° (ENE) 07:13:33 437.305
NUDT-PHONESAT 18 Oct 07:04:52 07:08:15 33° 97° (E) 07:11:34 437.300
XW-2B 18 Oct 07:07:16 07:10:55 50° 99° (E) 07:14:34 145.730 - 145.750
FO-29 18 Oct 07:07:40 07:09:13 11° 48° (NE) 07:10:49 435.910
CUTE 1.7 + AOD 2 18 Oct 07:24:27 07:27:31 19° 91° (E) 07:30:34 437.475
XW-2C 18 Oct 07:30:18 07:34:05 84° 284° (WNW) 07:37:49 145.795 - 145.815
SEEDS 18 Oct 07:36:48 07:39:28 16° 90° (E) 07:42:06 437.485
AO-7 18 Oct 07:53:55 07:58:46 17° 321° (NW) 08:03:37 .
CUBEBUG 2 18 Oct 07:58:28 08:02:30 28° 93° (E) 08:06:26 437.445
AAUSAT CUBESAT 2 18 Oct 08:08:20 08:10:55 16° 90° (E) 08:13:29 437.432
NO-84 18 Oct 08:10:53 08:14:29 28° 358° (N) 08:17:56 435.350 FM
LilacSat-2 18 Oct 08:17:57 08:21:02 24° 293° (WNW) 08:24:05 437.200
XW-2F 18 Oct 08:18:00 08:21:09 26° 293° (WNW) 08:24:16 145.980 - 146.000
KAITUO 1B 18 Oct 08:20:24 08:23:40 30° 291° (WNW) 08:26:54 145.475/437.950
ZACube-1 18 Oct 08:25:43 08:28:34 17° 89° (E) 08:31:22 437.345
HO-68 18 Oct 08:26:26 08:33:40 69° 104° (ESE) 08:40:50 435.675
XW-2D 18 Oct 08:28:43 08:31:27 19° 295° (WNW) 08:34:11 145.860 - 145.880
SO-50 18 Oct 08:33:37 08:38:06 90° 98° (E) 08:42:38 436.795
DOVE 4 18 Oct 08:35:51 08:36:00 10° 305° (NW) 08:36:11 437.250
CUTE-I 18 Oct 08:36:07 08:41:05 39° 294° (WNW) 08:46:01 437.470
RS-15 18 Oct 08:37:44 08:49:27 49° 31° (NNE) 09:00:35 29.354- 29.394
NUDT-PHONESAT 18 Oct 08:39:09 08:41:54 20° 295° (WNW) 08:44:39 437.300
UNISAT 6 18 Oct 08:40:33 08:43:26 16° 59° (ENE) 08:46:18 437.425
UWE-3 18 Oct 08:41:34 08:45:56 42° 97° (E) 08:50:09 435.000/436.395/437.385
XW-2B 18 Oct 08:42:30 08:44:43 15° 298° (WNW) 08:46:56 145.730 - 145.750
STRAND 1 18 Oct 08:43:05 08:47:25 27° 266° (W) 08:51:48 437.568
O/OREOS (USA 219) 18 Oct 08:45:10 08:47:48 15° 261° (W) 08:50:26 437.305
FO-29 18 Oct 08:47:56 08:53:04 61° 70° (ENE) 08:58:37 435.910
PCSat 18 Oct 08:48:42 08:53:19 29° 111° (ESE) 08:57:58 145.827
TIGRISAT 18 Oct 08:55:25 08:58:48 20° 61° (ENE) 09:02:13 435.000
CUTE 1.7 + AOD 2 18 Oct 08:59:34 09:03:35 44° 289° (WNW) 09:07:34 437.475
Oscar 11 18 Oct 09:06:16 09:09:54 26° 94° (E) 09:13:29 .
YUBILEINY 18 Oct 09:07:46 09:15:01 31° 81° (E) 09:22:16 435.215
SEEDS 18 Oct 09:11:23 09:15:27 52° 288° (WNW) 09:19:30 437.485
XW-2A 18 Oct 09:16:28 09:19:48 62° 286° (WNW) 09:23:06 145.665 - 145.685
CUBEBUG 2 18 Oct 09:34:51 09:39:11 37° 292° (WNW) 09:43:25 437.445
AO-73 18 Oct 09:40:13 09:44:40 81° 104° (ESE) 09:48:57 145.935
AAUSAT CUBESAT 2 18 Oct 09:42:40 09:46:41 53° 288° (WNW) 09:50:41 437.432
NO-84 18 Oct 09:48:48 09:52:37 42° 20° (NNE) 09:56:09 435.350 FM
Max Valier Satellite 18 Oct 09:49:37 09:50:33 11° 88° (E) 09:51:30 145.860
DELFI C3 18 Oct 09:58:16 10:01:15 20° 93° (E) 10:04:13 145.870
ZACube-1 18 Oct 10:00:53 10:05:15 56° 288° (WNW) 10:09:28 437.345
HO-68 18 Oct 10:14:50 10:20:52 30° 305° (NW) 10:26:53 435.675
UNISAT 6 18 Oct 10:14:54 10:19:32 75° 257° (WSW) 10:24:17 437.425
SO-50 18 Oct 10:15:49 10:19:11 20° 329° (NNW) 10:22:35 436.795
UWE-3 18 Oct 10:18:27 10:22:09 24° 296° (WNW) 10:25:45 435.000/436.395/437.385
PRISM 18 Oct 10:28:09 10:32:11 74° 74° (ENE) 10:36:16 437.425
TIGRISAT 18 Oct 10:30:30 10:35:03 58° 260° (W) 10:39:43 435.000
PCSat 18 Oct 10:31:10 10:36:28 52° 311° (NW) 10:41:48 145.827
QB50P2 18 Oct 10:32:10 10:33:39 12° 57° (ENE) 10:35:09 145.880/145.840
FO-29 18 Oct 10:35:02 10:38:48 20° 272° (W) 10:42:45 435.910
NANOSAT C BR1 18 Oct 10:38:18 10:39:22 11° 56° (ENE) 10:40:27 145.865
Oscar 11 18 Oct 10:42:10 10:46:06 35° 292° (WNW) 10:49:59 .
nSIGHT-1 18 Oct 10:48:26 10:50:05 13° 136° (SE) 10:51:44 .
DUCHIFAT 1 18 Oct 10:49:35 10:51:22 12° 58° (ENE) 10:53:09 145.980
RS-15 18 Oct 10:50:54 11:02:50 73° 240° (WSW) 11:14:05 29.354- 29.394
YUBILEINY 18 Oct 11:02:31 11:11:09 67° 283° (WNW) 11:19:53 435.215
AIST 2D 18 Oct 11:05:58 11:09:18 43° 72° (ENE) 11:12:39 435.315
ISS 18 Oct 11:14:28 11:16:55 20° 139° (SE) 11:19:23 437.550
EO-88 18 Oct 11:16:38 11:20:17 82° 105° (ESE) 11:23:54 145.990 - 145.960
AO-73 18 Oct 11:18:05 11:20:14 14° 302° (WNW) 11:22:22 145.935
Max Valier Satellite 18 Oct 11:21:09 11:24:49 64° 286° (WNW) 11:28:26 145.860
NO-84 18 Oct 11:26:23 11:30:05 46° 221° (SW) 11:33:27 435.350 FM
DELFI C3 18 Oct 11:32:27 11:36:08 38° 290° (WNW) 11:39:48 145.870
EO-79 18 Oct 11:40:31 11:44:35 45° 70° (ENE) 11:48:41 145.935-145.965
POLYITAN 1 18 Oct 11:44:31 11:48:39 49° 71° (ENE) 11:52:49 437.675
QB50P2 18 Oct 12:04:27 12:08:44 87° 75° (ENE) 12:13:04 145.880/145.840
PRISM 18 Oct 12:06:44 12:07:58 11° 272° (W) 12:09:13 437.425
NANOSAT C BR1 18 Oct 12:10:05 12:14:20 81° 76° (ENE) 12:18:38 145.865
LO-87 18 Oct 12:13:34 12:17:09 51° 100° (E) 12:20:41 145.935 - 145.965
M-CUBED/EXP-1 PRIME 18 Oct 12:17:39 12:19:31 14° 57° (ENE) 12:21:21 437.505
PCSat 18 Oct 12:17:53 12:21:09 16° 333° (NNW) 12:24:26 145.827
DUCHIFAT 1 18 Oct 12:22:08 12:26:23 86° 261° (W) 12:30:40 145.980
ESTCUBE 1 18 Oct 12:22:10 12:26:28 43° 98° (E) 12:30:44 437.505/2401.250
nSIGHT-1 18 Oct 12:22:42 12:25:54 73° 152° (SSE) 12:29:06 .
BEESAT 3 18 Oct 12:34:38 12:37:26 19° 113° (ESE) 12:40:16 437.485
BUGSAT 1 18 Oct 12:39:04 12:43:00 40° 69° (ENE) 12:46:59 437.445
AIST 2D 18 Oct 12:40:44 12:42:42 14° 269° (W) 12:44:40 435.315
Oscar 19 18 Oct 12:41:17 12:45:38 28° 63° (ENE) 12:49:59 437.125/150
ISS 18 Oct 12:49:49 12:53:04 84° 335° (NNW) 12:56:21 437.550
Gurwin Techsat 1B 18 Oct 12:54:57 12:59:21 27° 62° (ENE) 13:03:46 435.225
YUBILEINY 18 Oct 13:04:39 13:09:58 17° 309° (NW) 13:15:20 435.215
RS-15 18 Oct 13:05:27 13:12:56 20° 264° (W) 13:20:16 29.354- 29.394
EO-79 18 Oct 13:17:24 13:20:34 20° 268° (W) 13:23:45 145.935-145.965
AO-7 18 Oct 13:20:21 13:26:09 22° 43° (NE) 13:31:55 .
POLYITAN 1 18 Oct 13:21:41 13:24:41 18° 269° (W) 13:27:44 437.675
SPROUT 18 Oct 13:29:56 13:34:12 57° 101° (E) 13:38:25 437.525
DX 1 18 Oct 13:36:47 13:38:42 13° 89° (E) 13:40:36 434.975-435.025
SO-50 18 Oct 13:41:58 13:43:58 13° 19° (NNE) 13:45:58 436.795
QB50P2 18 Oct 13:44:20 13:45:08 10° 273° (W) 13:45:57 145.880/145.840
LO-87 18 Oct 13:48:08 13:50:09 14° 298° (WNW) 13:52:11 145.935 - 145.965
BEESAT 2 18 Oct 13:49:03 13:52:37 32° 118° (ESE) 13:56:16 435.950
NANOSAT C BR1 18 Oct 13:49:18 13:50:36 11° 273° (W) 13:51:55 145.865
M-CUBED/EXP-1 PRIME 18 Oct 13:50:24 13:53:41 44° 254° (WSW) 13:56:52 437.505
AO-85 18 Oct 13:57:02 14:00:16 26° 116° (ESE) 14:03:36 145.980
VELOX 1 18 Oct 13:57:50 14:02:18 75° 103° (ESE) 14:06:44 145.980
nSIGHT-1 18 Oct 13:59:16 14:02:20 42° 353° (N) 14:05:25 .
ESTCUBE 1 18 Oct 13:59:28 14:03:02 24° 297° (WNW) 14:06:35 437.505/2401.250
UKube-1 18 Oct 14:04:50 14:07:28 16° 90° (E) 14:10:07 .
BEESAT 3 18 Oct 14:10:40 14:14:37 55° 312° (NW) 14:18:36 437.485
BUGSAT 1 18 Oct 14:15:16 14:18:31 22° 267° (W) 14:21:48 437.445
Oscar 19 18 Oct 14:19:47 14:24:45 46° 261° (W) 14:29:43 437.125/150
ISS 18 Oct 14:26:41 14:29:48 40° 357° (N) 14:32:56 437.550
Gurwin Techsat 1B 18 Oct 14:33:54 14:39:02 50° 260° (W) 14:44:13 435.225
ITAMSAT 1 18 Oct 14:48:18 14:52:42 29° 62° (ENE) 14:57:08 435.822/435.867
50 SAT 18 Oct 15:00:27 15:03:44 60° 286° (WNW) 15:06:59 437.505
SPROUT 18 Oct 15:06:47 15:09:40 18° 299° (WNW) 15:12:33 437.525
AO-7 18 Oct 15:09:21 15:17:35 72° 66° (ENE) 15:25:51 .
DX 1 18 Oct 15:11:01 15:15:24 76° 287° (WNW) 15:19:46 434.975-435.025
SO-50 18 Oct 15:21:28 15:25:43 36° 41° (NE) 15:30:01 436.795
BEESAT 2 18 Oct 15:26:37 15:30:20 34° 317° (NW) 15:34:05 435.950
VELOX 1 18 Oct 15:35:41 15:38:11 15° 301° (WNW) 15:40:41 145.980
nSIGHT-1 18 Oct 15:35:51 15:38:59 48° 12° (NNE) 15:42:07 .
AO-85 18 Oct 15:36:49 15:40:29 38° 316° (NW) 15:44:19 145.980
UKube-1 18 Oct 15:39:37 15:43:53 59° 288° (WNW) 15:48:08 .
MOZHAYETS 4 18 Oct 15:47:14 15:51:13 28° 94° (E) 15:55:08
PCSat 18 Oct 15:49:39 15:52:56 16° 27° (NNE) 15:56:14 145.827
BEESAT 3 18 Oct 15:51:00 15:53:01 13° 333° (NNW) 15:55:03 437.485
ITUPSAT 1 18 Oct 15:56:33 16:00:47 30° 95° (E) 16:04:59 437.325
ISS 18 Oct 16:03:23 16:06:37 59° 17° (NNE) 16:09:52 437.550
BEESAT 18 Oct 16:13:18 16:17:53 43° 99° (E) 16:22:25 436.000
DOVE 4 18 Oct 16:26:51 16:30:13 24° 64° (ENE) 16:33:42 437.250
ITAMSAT 1 18 Oct 16:26:59 16:31:58 46° 261° (W) 16:36:59 435.822/435.867
CUTE-I 18 Oct 16:44:39 16:47:18 14° 53° (NE) 16:49:57 437.470
DX 1 18 Oct 16:49:50 16:50:48 11° 305° (NW) 16:51:47 434.975-435.025
SO-50 18 Oct 17:01:56 17:06:13 39° 241° (WSW) 17:10:33 436.795
AO-7 18 Oct 17:04:02 17:11:01 30° 266° (W) 17:18:05 .
BEESAT 2 18 Oct 17:08:30 17:09:15 10° 339° (NNW) 17:09:59 435.950
nSIGHT-1 18 Oct 17:12:11 17:15:18 47° 212° (SSW) 17:18:24 .
HO-68 18 Oct 17:14:07 17:18:40 18° 47° (NE) 17:23:15 435.675
AO-85 18 Oct 17:20:51 17:22:04 11° 340° (NNW) 17:23:19 145.980
MOZHAYETS 4 18 Oct 17:24:13 17:28:25 36° 293° (WNW) 17:32:35
XW-2F 18 Oct 17:27:59 17:30:54 22° 66° (ENE) 17:33:50 145.980 - 146.000
LilacSat-2 18 Oct 17:28:33 17:31:43 25° 67° (ENE) 17:34:53 437.200
KKS-1 18 Oct 17:29:26 17:32:52 21° 93° (E) 17:36:16 437.445
CUBESAT XI-V 18 Oct 17:29:35 17:34:11 67° 102° (ESE) 17:38:45 437.345
KAITUO 1B 18 Oct 17:30:04 17:32:41 18° 64° (ENE) 17:35:17 145.475/437.950
PCSat 18 Oct 17:32:18 17:37:38 52° 50° (NE) 17:42:54 145.827
ITUPSAT 1 18 Oct 17:34:15 17:38:40 37° 294° (WNW) 17:43:02 437.325
XW-2D 18 Oct 17:38:14 17:41:35 30° 68° (ENE) 17:44:55 145.860 - 145.880
ISS 18 Oct 17:40:00 17:43:00 33° 216° (SW) 17:45:59 437.550
NUDT-PHONESAT 18 Oct 17:47:02 17:50:10 26° 67° (ENE) 17:53:17 437.300
XW-2B 18 Oct 17:51:21 17:54:55 39° 71° (ENE) 17:58:29 145.730 - 145.750
BEESAT 18 Oct 17:51:28 17:55:27 26° 297° (WNW) 17:59:23 436.000
DOVE 4 18 Oct 18:03:50 18:07:44 37° 263° (W) 18:11:48 437.250
STARS 18 Oct 18:07:53 18:11:20 22° 93° (E) 18:14:46 437.465
XW-2C 18 Oct 18:14:12 18:18:00 74° 74° (ENE) 18:21:48 145.795 - 145.815
CUTE 1.7 + AOD 2 18 Oct 18:20:16 18:23:31 22° 64° (ENE) 18:26:46 437.475
CUTE-I 18 Oct 18:21:10 18:26:29 76° 72° (ENE) 18:31:50 437.470
SEEDS 18 Oct 18:31:41 18:34:34 18° 63° (ENE) 18:37:27 437.485
HO-68 18 Oct 18:58:07 19:05:14 71° 68° (ENE) 19:12:24 435.675
CUBEBUG 2 18 Oct 18:59:11 19:03:24 35° 67° (ENE) 19:07:42 437.445
XW-2F 18 Oct 19:01:23 19:04:51 33° 263° (W) 19:08:19 145.980 - 146.000
AAUSAT CUBESAT 2 18 Oct 19:01:44 19:04:26 17° 62° (ENE) 19:07:09 437.432
LilacSat-2 18 Oct 19:02:32 19:05:54 29° 264° (W) 19:09:17 437.200
KAITUO 1B 18 Oct 19:02:52 19:06:24 39° 262° (W) 19:09:56 145.475/437.950
AO-73 18 Oct 19:04:54 19:07:07 13° 58° (ENE) 19:09:20 145.935
KKS-1 18 Oct 19:05:20 19:09:39 47° 290° (WNW) 19:13:55 437.445
CUBESAT XI-V 18 Oct 19:08:06 19:11:03 17° 300° (WNW) 19:13:59 437.345
BEESAT 3 18 Oct 19:11:12 19:11:54 10° 21° (NNE) 19:12:36 437.485
STRAND 1 18 Oct 19:12:26 19:14:04 11° 86° (E) 19:15:42 437.568
YUBILEINY 18 Oct 19:12:30 19:18:31 20° 54° (NE) 19:24:32 435.215
XW-2D 18 Oct 19:12:39 19:15:46 24° 266° (W) 19:18:53 145.860 - 145.880
PCSat 18 Oct 19:16:08 19:20:45 29° 250° (WSW) 19:25:22 145.827
NUDT-PHONESAT 18 Oct 19:20:47 19:23:58 26° 265° (W) 19:27:09 437.300
ZACube-1 18 Oct 19:24:13 19:27:43 22° 63° (ENE) 19:31:12 437.345
XW-2B 18 Oct 19:26:36 19:29:15 18° 268° (W) 19:31:55 145.730 - 145.750
UWE-3 18 Oct 19:41:02 19:45:32 51° 71° (ENE) 19:50:05 435.000/436.395/437.385
STARS 18 Oct 19:43:38 19:47:52 44° 291° (WNW) 19:52:05 437.465
XW-2A 18 Oct 19:50:07 19:53:31 69° 75° (ENE) 19:56:56 145.665 - 145.685
CUTE 1.7 + AOD 2 18 Oct 19:55:05 19:59:06 42° 262° (W) 20:03:08 437.475
CUTE-I 18 Oct 20:03:46 20:07:08 17° 271° (W) 20:10:31 437.470
Oscar 11 18 Oct 20:04:02 20:07:50 30° 67° (ENE) 20:11:39 .
SEEDS 18 Oct 20:05:50 20:09:54 50° 261° (W) 20:13:59 437.485
BEESAT 2 18 Oct 20:26:18 20:28:30 14° 28° (NNE) 20:30:42 435.950
